[[{"header":{"parameterUnit":"m.s-1","parameterCategory":1,"la1":30.2991,"la2":30.254,"lo1":-89.0895,"lo2":-89.0444,"dy":0.0017,"dx":0.0017,"nx":28,"ny":28,"refTime":"2023-10-14T03:00:00:Z","depth":0,"parameterNumber":2,"parameterNumberName":"U-component_of_WINDS"},"data":[0,0,0,0,0,0,0,0,0,0,0,0,0,0,0,0,0,0,0,0,0,0,0,0,0,0,0,0,0,0,0,0,0,0,0,0,0,0,0,0,0,0,0,0,0,0,0,0,0,0,0,0,0,0,0,0,0,0,2.6811,2.6811,0,2.6834,2.6835,2.6835,2.6809,2.6808,2.6807,2.6806,2.6829,2.683,2.6832,0,0,0,0,0,0,0,0,0,0,0,0,0,2.6744,2.6746,2.6811,2.6811,2.6812,2.6834,2.6835,2.6835,2.6809,2.6808,2.6807,2.6806,2.6828,2.683,2.6832,0,0,0,0,0,0,0,0,0,0,0,0,0,2.6771,2.6746,2.6811,2.6802,2.6801,2.6834,2.6835,2.6835,2.681,2.6808,2.6807,2.6805,2.6828,2.683,2.6832,2.6875,0,0,2.6839,2.684,0,0,0,0,0,0,0,0,2.6769,2.6773,2.6803,2.6802,2.6802,2.6817,2.6819,2.6848,2.681,2.6806,2.6806,2.6805,2.6826,2.6828,2.6836,2.6876,2.6877,2.6839,2.6841,2.6842,2.6842,0,0,0,0,0,0,0,2.6768,2.6772,2.682,2.6803,2.6803,2.6796,2.6798,2.6825,2.6824,2.6807,2.6805,2.6808,2.6826,2.6834,2.6836,2.6877,2.6839,2.6841,2.6843,2.6843,2.6955,2.6956,0,0,0,0,0,0,2.6767,2.6771,2.682,2.6821,2.6782,2.6799,2.6801,2.6814,2.6824,2.6824,2.6809,2.6807,2.6831,2.6834,2.6837,2.6888,2.6842,2.6844,2.6845,2.6953,2.6955,2.6957,0,0,0,0,0,0,2.6766,2.6772,2.6819,2.6796,2.6801,2.6801,2.6816,2.6815,2.6823,2.6826,2.6825,2.6818,2.683,2.6834,2.6866,2.6888,2.6845,2.6847,2.6951,2.6954,2.6956,2.699,0,0,0,0,0,0,2.6764,2.6771,2.6788,2.6796,2.6802,2.6848,2.6817,2.6817,2.6827,2.6824,2.6834,2.6834,2.6829,2.6863,2.6868,2.6891,2.6848,2.6949,2.6952,2.6955,2.6987,2.6994,2.6999,0,0,0,0,0,2.6762,2.6796,2.6788,2.6794,2.6823,2.6849,2.6852,2.6846,2.6829,2.6846,2.6848,2.6833,2.6885,2.6866,2.6872,2.6896,2.6948,2.6952,2.6955,2.6985,2.6992,2.6999,0,0,0,0,0,0,2.6789,2.6797,2.6789,2.6827,2.6838,2.6844,2.6865,2.6855,2.687,2.6866,2.6858,2.686,2.6895,2.6899,2.6877,2.6938,2.6914,2.6919,2.6934,2.6942,2.6948,2.6945,2.685,0,0,0,0,0,2.68,2.682,2.6826,2.6859,2.6865,2.6864,2.6875,2.687,2.688,2.6885,2.6889,2.6899,2.6918,2.693,2.6947,2.6988,2.699,2.7007,2.7013,2.7018,2.7022,2.7045,2.7052,2.6969,2.6969,2.6969,0,0,2.6821,2.6828,2.6842,2.6865,2.6872,2.6894,2.6868,2.6892,2.6908,2.6888,2.6919,2.6922,2.6934,2.6971,2.6987,2.6975,2.7046,2.7023,2.7027,2.7028,2.7049,2.7057,2.7064,2.6971,2.6971,2.6971,0,0,2.6872,2.688,2.6908,2.6917,2.6929,2.6928,2.6936,2.6945,2.6946,2.6977,2.6963,2.6982,2.7015,2.7023,2.7032,2.7088,2.7076,2.7094,2.7125,2.7146,2.7153,2.7159,2.7178,2.7186,2.7098,2.7098,2.7098,0,2.6897,2.6929,2.6924,2.6949,2.696,2.6944,2.6973,2.6982,2.6999,2.7006,2.6993,2.7034,2.704,2.7079,2.7093,2.7101,2.7108,2.7092,2.7153,2.7158,2.7164,2.7182,2.719,2.71,2.71,2.71,2.71,0,2.696,2.6983,2.7004,2.7022,2.7035,2.7062,2.7061,2.7075,2.7069,2.707,2.7102,2.711,2.7129,2.7138,2.7132,2.7176,2.7168,2.7154,2.7129,2.7174,2.7191,2.7198,2.7103,2.7103,2.7102,2.7102,0,0,2.7027,2.7042,2.705,2.7058,2.7072,2.7089,2.7116,2.7135,2.7147,2.716,2.7182,2.7211,2.7198,2.7208,2.7203,2.7222,2.7266,2.7206,2.7206,2.7216,2.7316,2.7325,2.7334,2.7259,2.726,2.7261,2.7314,0,2.7077,2.7123,2.712,2.7163,2.7184,2.7171,2.7194,2.7205,2.7207,2.7225,2.7227,2.7248,2.723,2.7236,2.7254,2.7257,2.7286,2.7253,2.7279,2.728,2.7275,2.7343,2.7353,2.7403,2.7321,2.7322,2.7323,0,2.7142,2.7158,2.7204,2.7215,2.7223,2.7244,2.7262,2.728,2.7292,2.7292,2.7304,2.7297,2.7324,2.7299,2.7336,2.7314,2.7325,2.7328,2.733,2.7331,2.7303,2.7345,2.7419,2.7426,2.7334,2.7333,2.7332,0,2.7185,2.7219,2.725,2.7258,2.7272,2.7287,2.7293,2.7304,2.7316,2.7332,2.734,2.7358,2.7368,2.7383,2.738,2.7363,2.7418,2.7393,2.7419,2.7419,2.743,2.7429,2.7505,2.7438,2.7438,2.7438,2.7438,0,2.7241,2.727,2.727,2.729,2.7321,2.7318,2.7349,2.7354,2.7364,2.7384,2.7374,2.7393,2.7389,2.7408,2.7407,2.7438,2.7442,2.7443,2.7442,2.7444,2.7443,2.7449,2.7445,2.744,2.7439,2.7439,2.7439,0,2.7295,2.7296,2.733,2.7341,2.7344,2.7367,2.7376,2.7395,2.7397,2.7423,2.7428,2.7432,2.7454,2.7453,2.7478,2.7478,2.7515,2.7511,2.7511,2.751,2.7535,2.7532,2.7617,2.7627,2.7555,2.7555,2.7556,0,2.733,2.7351,2.7365,2.7378,2.7386,2.7407,2.742,2.7417,2.7431,2.7447,2.7464,2.7485,2.7502,2.7538,2.7543,2.7562,2.7557,2.7586,2.756,2.7561,2.7557,2.7555,2.7558,2.759,2.7591,2.7592,2.7592,0,2.7392,2.7392,2.7411,2.743,2.7446,2.7461,2.7475,2.7486,2.7485,2.7501,2.7524,2.7537,2.7564,2.7585,2.7604,2.7611,2.7601,2.7601,2.7607,2.7608,2.7607,2.7608,2.7524,2.7598,2.7598,2.7597,2.7597,2.7597,2.7437,2.7455,2.7468,2.749,2.7501,2.7514,2.7532,2.7537,2.7556,2.7578,2.7576,2.7601,2.7614,2.7638,2.7647,2.7667,2.7657,2.7667,2.7669,2.7671,2.7674,2.7606,2.767,2.767,2.767,2.767,2.767,0,2.7498,2.7506,2.7526,2.7546,2.7563,2.7554,2.757,2.7584,2.7607,2.762,2.7637,2.7664,2.7685,2.7692,2.7713,2.7727,2.7724,2.7733,2.7731,2.7733,2.7682,2.7674,2.7735,2.7735,2.7735,2.7735,2.7735,2.7735,2.7531,2.7563,2.7565,2.7602,2.7609,2.7635,2.7644,2.7657,2.7667,2.7698,2.7716,2.772,2.7731,2.7752,2.7771,2.7773,2.7781,2.7791,2.7791,2.7743,2.7736,2.773,2.7722,2.7793,2.7793,2.784,2.7841,2.7841]},{"header":{"parameterUnit":"m.s-1","parameterCategory":1,"la1":30.2991,"la2":30.254,"lo1":-89.0895,"lo2":-89.0444,"dy":0.0017,"dx":0.0017,"nx":28,"ny":28,"refTime":"2023-10-14T03:00:00:Z","depth":0,"parameterNumber":3,"parameterNumberName":"V-component_of_WINDS"},"data":[0,0,0,0,0,0,0,0,0,0,0,0,0,0,0,0,0,0,0,0,0,0,0,0,0,0,0,0,0,0,0,0,0,0,0,0,0,0,0,0,0,0,0,0,0,0,0,0,0,0,0,0,0,0,0,0,0,0,-6.9195,-6.9197,0,-6.9408,-6.9411,-6.9413,-6.9349,-6.9345,-6.934,-6.9336,-6.955,-6.9559,-6.9569,0,0,0,0,0,0,0,0,0,0,0,0,0,-6.873,-6.8739,-6.9195,-6.9198,-6.92,-6.9408,-6.9411,-6.9414,-6.935,-6.9345,-6.9339,-6.9334,-6.9546,-6.9558,-6.957,0,0,0,0,0,0,0,0,0,0,0,0,0,-6.8936,-6.8742,-6.9194,-6.9194,-6.9196,-6.9407,-6.9411,-6.9414,-6.9351,-6.9344,-6.9338,-6.9332,-6.9543,-6.9557,-6.9571,-6.9795,0,0,-6.9616,-6.9623,0,0,0,0,0,0,0,0,-6.8925,-6.8953,-6.9191,-6.9194,-6.9197,-6.9345,-6.9325,-6.9542,-6.9353,-6.9292,-6.9336,-6.9328,-6.9487,-6.9506,-6.956,-6.9805,-6.9814,-6.9618,-6.9627,-6.9633,-6.9637,0,0,0,0,0,0,0,-6.891,-6.8944,-6.9279,-6.9195,-6.9198,-6.9182,-6.9204,-6.9366,-6.9424,-6.9297,-6.9293,-6.9319,-6.9487,-6.9546,-6.9564,-6.9817,-6.9617,-6.963,-6.9639,-6.9645,-7.0258,-7.0265,0,0,0,0,0,0,-6.8895,-6.8932,-6.9272,-6.9285,-6.9042,-6.9195,-6.922,-6.9304,-6.9422,-6.9434,-6.9324,-6.9315,-6.9524,-6.9547,-6.9572,-6.9843,-6.9633,-6.9647,-6.9655,-7.0251,-7.026,-7.0268,0,0,0,0,0,0,-6.8885,-6.8926,-6.9264,-6.9108,-6.915,-6.9211,-6.9306,-6.9312,-6.9371,-6.9443,-6.9452,-6.9374,-6.952,-6.9551,-6.9741,-6.985,-6.9653,-6.9667,-7.0242,-7.0253,-7.0264,-7.0387,0,0,0,0,0,0,-6.8872,-6.8922,-6.9009,-6.911,-6.9158,-6.9431,-6.9312,-6.9321,-6.9397,-6.9387,-6.9492,-6.9503,-6.9517,-6.9719,-6.9755,-6.9866,-6.9678,-7.0232,-7.0247,-7.026,-7.0373,-7.0401,-7.0424,0,0,0,0,0,-6.8855,-6.9033,-6.9014,-6.9055,-6.9268,-6.9437,-6.9464,-6.9478,-6.9406,-6.9493,-6.954,-6.95,-6.9832,-6.9739,-6.9779,-6.9896,-7.0226,-7.0243,-7.0259,-7.0362,-7.0395,-7.0423,0,0,0,0,0,0,-6.8941,-6.9047,-6.9026,-6.9242,-6.9332,-6.9426,-6.9536,-6.9513,-6.9623,-6.9609,-6.9619,-6.9643,-6.9838,-6.9886,-6.9781,-7.012,-7.0018,-7.0043,-7.0082,-7.0114,-7.0139,-7.0124,-6.969,0,0,0,0,0,-6.8986,-6.9115,-6.92,-6.9383,-6.9429,-6.9475,-6.9549,-6.9552,-6.9644,-6.9681,-6.9741,-6.9831,-6.9955,-7.0037,-7.0155,-7.0379,-7.0402,-7.0479,-7.0505,-7.0525,-7.0548,-7.0671,-7.0707,-7.0323,-7.0323,-7.0322,0,0,-6.9078,-6.9152,-6.9233,-6.9402,-6.9471,-6.9605,-6.9507,-6.9652,-6.9751,-6.9702,-6.9887,-6.9934,-7.0034,-7.0243,-7.0337,-7.0288,-7.0659,-7.0547,-7.0563,-7.0574,-7.0692,-7.0729,-7.0761,-7.0334,-7.0332,-7.033,0,0,-6.9315,-6.9384,-6.9545,-6.9617,-6.9724,-6.9754,-6.9793,-6.9892,-6.9922,-7.0107,-7.0074,-7.0191,-7.0405,-7.0479,-7.0544,-7.0811,-7.078,-7.0849,-7.0983,-7.1103,-7.1133,-7.116,-7.1257,-7.1292,-7.0871,-7.0871,-7.0872,0,-6.9416,-6.9618,-6.963,-6.9779,-6.9855,-6.9819,-6.9982,-7.005,-7.019,-7.0243,-7.0186,-7.0456,-7.052,-7.0747,-7.0812,-7.0866,-7.091,-7.0838,-7.1128,-7.1155,-7.1181,-7.1273,-7.1309,-7.0879,-7.0878,-7.0877,-7.0877,0,-6.9738,-6.9878,-6.9995,-7.0134,-7.0222,-7.0377,-7.0412,-7.05,-7.0495,-7.0531,-7.072,-7.0797,-7.0932,-7.0985,-7.0981,-7.1211,-7.1178,-7.1125,-7.1023,-7.1225,-7.1312,-7.1348,-7.0891,-7.0888,-7.0885,-7.0883,0,0,-7.0035,-7.018,-7.0223,-7.0286,-7.0402,-7.051,-7.0663,-7.0797,-7.0873,-7.097,-7.11,-7.1282,-7.1235,-7.1309,-7.1313,-7.1418,-7.1627,-7.1352,-7.1355,-7.1402,-7.1888,-7.1928,-7.1969,-7.1606,-7.1613,-7.1618,-7.188,0,-7.0284,-7.0556,-7.0572,-7.0818,-7.0949,-7.0917,-7.105,-7.1136,-7.1173,-7.1288,-7.1328,-7.1459,-7.1385,-7.143,-7.1533,-7.158,-7.1725,-7.1561,-7.1727,-7.1732,-7.1704,-7.2014,-7.2057,-7.23,-7.1914,-7.1919,-7.1923,0,-7.061,-7.0721,-7.0981,-7.1081,-7.1136,-7.1256,-7.138,-7.1491,-7.1587,-7.1607,-7.1691,-7.168,-7.1837,-7.1729,-7.1946,-7.1834,-7.1902,-7.1936,-7.1945,-7.1963,-7.1841,-7.2041,-7.2378,-7.2415,-7.1977,-7.1973,-7.1969,0,-7.0804,-7.1017,-7.1201,-7.1255,-7.1375,-7.1461,-7.1515,-7.1604,-7.1684,-7.1792,-7.1844,-7.1968,-7.2036,-7.2132,-7.2155,-7.2074,-7.2372,-7.2265,-7.2393,-7.2393,-7.2459,-7.2454,-7.2813,-7.25,-7.25,-7.2499,-7.2498,0,-7.1081,-7.1242,-7.129,-7.1403,-7.1582,-7.1598,-7.1775,-7.1822,-7.1903,-7.2025,-7.2003,-7.2117,-7.214,-7.2259,-7.2277,-7.2455,-7.2485,-7.2505,-7.2509,-7.2509,-7.2506,-7.2555,-7.2539,-7.2508,-7.2506,-7.2504,-7.2503,0,-7.1327,-7.1366,-7.1565,-7.1663,-7.1691,-7.1819,-7.1903,-7.2011,-7.2046,-7.22,-7.2237,-7.2292,-7.2431,-7.2464,-7.2628,-7.264,-7.2851,-7.2837,-7.282,-7.2819,-7.2946,-7.2935,-7.3349,-7.3405,-7.3054,-7.3058,-7.306,0,-7.1503,-7.1626,-7.1738,-7.1819,-7.1878,-7.2007,-7.209,-7.211,-7.2196,-7.2316,-7.241,-7.2547,-7.2658,-7.2881,-7.2935,-7.3061,-7.3051,-7.3187,-7.3069,-7.3066,-7.3055,-7.3048,-7.3061,-7.321,-7.3214,-7.3217,-7.3219,0,-7.181,-7.1824,-7.1943,-7.2071,-7.217,-7.2271,-7.2367,-7.2434,-7.2467,-7.2565,-7.2708,-7.2794,-7.2963,-7.31,-7.3227,-7.328,-7.3257,-7.3256,-7.3293,-7.3295,-7.3281,-7.3292,-7.2883,-7.3247,-7.3244,-7.3242,-7.324,-7.3239,-7.2028,-7.2137,-7.2234,-7.2368,-7.2443,-7.2534,-7.2642,-7.2691,-7.2811,-7.2952,-7.2956,-7.3112,-7.3206,-7.3374,-7.3436,-7.3558,-7.3516,-7.3568,-7.3582,-7.3595,-7.3607,-7.326,-7.358,-7.358,-7.3579,-7.3578,-7.3578,0,-7.2336,-7.2397,-7.2521,-7.2657,-7.2763,-7.2732,-7.2837,-7.2928,-7.3067,-7.3156,-7.3267,-7.3432,-7.3564,-7.3629,-7.376,-7.3846,-7.3838,-7.388,-7.3874,-7.3888,-7.3637,-7.3593,-7.3884,-7.3884,-7.3884,-7.3884,-7.3884,-7.3883,-7.2509,-7.2693,-7.2718,-7.2938,-7.2997,-7.3152,-7.3215,-7.3299,-7.3371,-7.3557,-7.3668,-7.371,-7.379,-7.3927,-7.4048,-7.4063,-7.4113,-7.4161,-7.4171,-7.3936,-7.3905,-7.3875,-7.3834,-7.4171,-7.4172,-7.4412,-7.4414,-7.4416]}]]